Location: Mapua
(41.2500°S, 173.1000°E)
Time: 07:36:36
(UTC+12:00)

ISS - Visible Passes

Search period start: 25 May 2017 00:00
Search period end: 04 June 2017 00:00
Orbit: 402 x 409 km, 51.6° (Epoch: 25 May)

Date Brightness Start Highest point End Pass type
(mag) Time Alt. Az. Time Alt. Az. Time Alt. Az.
29 May -0.8 06:46:38 10° N 06:49:08 20° NE 06:51:38 10° E visible
30 May -0.3 05:56:37 10° NE 05:57:17 10° NE 05:57:57 10° ENE visible
31 May -2.8 06:38:03 10° NW 06:41:15 48° NE 06:44:28 10° ESE visible
01 Jun -1.6 05:47:01 13° N 05:49:16 25° NE 05:52:04 10° ESE visible
02 Jun -0.5 04:58:15 12° ENE 04:58:15 12° ENE 04:59:04 10° E visible
02 Jun -3.9 06:30:59 16° WNW 06:33:28 70° SW 06:36:48 10° SE visible
03 Jun -3.1 05:41:49 54° E 05:41:49 54° E 05:44:40 10° ESE visible
